CYGFM04

Last updated on Wed Sep 23 2026 00:03:10 GMT+0000 (Coordinated Universal Time)

1 41885U 16078B 26265.47164552 .00029869 00000+0 26785-3 0 9997 2 41885 34.9313 296.4683 0003099 71.7931 288.3134 15.67238475544244
UTC large
Height (km)
Speed (km/s)
/
Latitude / Longitude
Inclination (degrees)
Orbital Period (minutes)
Azimuth
Elevation
Range (km)
Doppler Factor

Next 0 passes for location: London (51.5072 / 0.1276)

No passes found over London.
CYGFM04